Tracking 18852 objects as of 24-Nov-2017
HD Live streaming from Space Station
objects crossing your sky now

COSMOS 713

Track COSMOS 713 now!
10-day predictions
COSMOS 713 is classified as:


NORAD ID: 7680
Int'l Code: 1975-016C
Perigee: 1,402.1 km
Apogee: 1,494.3 km
Inclination: 74.0 °
Period: 114.7 minutes
Semi major axis: 7819 km
RCS: 0.6922 m2 (medium)
Launch date: February 28, 1975
Source: Commonwealth of Independent States (former USSR) (CIS)
Launch site: PLESETSK MISSILE AND SPACE COMPLEX (PKMTR)
aabbcc
Your satellite tracking list
Your tracking list is empty




NASA's NSSDC Master Catalog

Two Line Element Set (TLE):
1  7680U 75016C   17328.25888719 -.00000001 +00000-0 +93443-4 0  9998
2  7680 074.0038 264.8996 0058912 207.8503 261.2593 12.55625448958911
Source of the keplerian elements: AFSPC